Location: Sobotiste
(48.7170°N, 17.4000°E)
Time: 10:53:49
(UTC+02:00)

CAS-6 - Pass Details

Date: 22 March 2026
Orbit: 601 x 618 km, 97.8° (Epoch: 19 April)

Event Time Altitude Azimuth Distance (km) Brightness Sun altitude
Exits shadow 22:23:45 16° 322° (NW) 1,609 ? -36.4°
Drops below altitude 10° 22:24:45 10° 329° (NNW) 1,961 ? -36.5°
Sets 22:27:07 0° 339° (NNW) 2,872 ? -36.7°
